This is the latest recevied weather packets stored in our database for station/object Kirchdorf. If no packets are shown the sender has not sent any weather packets the latest 10 day(s).
| Time | Temp. | Humidity | Pressure | Rain* | Wind** | Luminosity | Snow |
|---|---|---|---|---|---|---|---|
| 1777681929 | 5.56° C | 84% | 1024.3 hPa | 0 mm | - | - | - |
| 1777680129 | 6.11° C | 84% | 1024.5 hPa | 0 mm | - | - | - |
| 1777678330 | 6.67° C | 79% | 1024.6 hPa | 0 mm | - | - | - |
| 1777676530 | 7.78° C | 75% | 1024.8 hPa | 0 mm | - | - | - |
| 1777674730 | 8.33° C | 72% | 1024.8 hPa | 0 mm | - | - | - |
| 1777671130 | 10.56° C | 65% | 1025.1 hPa | 0 mm | - | - | - |
| 1777669330 | 11.67° C | 60% | 1025.1 hPa | 0 mm | - | - | - |
| 1777667529 | 13.33° C | 55% | 1025.3 hPa | 0 mm | - | - | - |
| 1777665732 | 13.33° C | 54% | 1025.1 hPa | 0 mm | - | - | - |
| 1777663929 | 14.44° C | 50% | 1024.9 hPa | 0 mm | - | - | - |
| 1777662130 | 15° C | 49% | 1024.8 hPa | 0 mm | - | - | - |
| 1777660330 | 16.11° C | 46% | 1024.8 hPa | 0 mm | - | - | - |
| 1777658531 | 17.78° C | 42% | 1024.7 hPa | 0 mm | - | - | - |
| 1777656731 | 18.89° C | 39% | 1024.6 hPa | 0 mm | - | - | - |
| 1777654930 | 19.44° C | 36% | 1024.7 hPa | 0 mm | - | - | - |
| 1777653130 | 20.56° C | 35% | 1024.8 hPa | 0 mm | - | - | - |
| 1777651330 | 20.56° C | 34% | 1024.8 hPa | 0 mm | - | - | - |
| 1777649530 | 21.11° C | 33% | 1024.8 hPa | 0 mm | - | - | - |
| 1777647730 | 21.67° C | 32% | 1025 hPa | 0 mm | - | - | - |
| 1777645930 | 21.67° C | 31% | 1025.1 hPa | 0 mm | - | - | - |
| 1777644130 | 21.67° C | 30% | 1025.4 hPa | 0 mm | - | - | - |
| 1777642330 | 21.11° C | 31% | 1025.6 hPa | 0 mm | - | - | - |
| 1777640531 | 20.56° C | 32% | 1025.7 hPa | 0 mm | - | - | - |
| 1777638736 | 20.56° C | 32% | 1026 hPa | 0 mm | - | - | - |
| 1777636931 | 20° C | 30% | 1026.3 hPa | 0 mm | - | - | - |
* Rain since midnight (hover to see other rain measurements)
** Current wind speed in m/s (hover to see current wind gust speed)